Regional Weather Roundup
Issued by NWS

Home | Current Version | Previous Version | Text Only | Print | Product List | Glossary Off
Versions: 1 2 3 4 5 6 7 8 9 10 11 12 13 14 15 16 17 18 19 20 21 22 23 24 25 26 27 28 29 30 31 32 33 34 35 36 37 38 39 40 41 42 43 44 45 46 47 48 49 50

000
ASUS43 KIND 100209
RWRIN

WEATHER ROUNDUP FOR INDIANA
NATIONAL WEATHER SERVICE INDIANAPOLIS IN
1000 PM EDT WED JUL 09 2014

NOTE: "FAIR" INDICATES FEW OR NO CLOUDS BELOW 12,000 FEET WITH NO
SIGNIFICANT WEATHER AND/OR OBSTRUCTIONS TO VISIBILITY.

* - STATION DOES NOT REPORT WEATHER SUCH AS PRECIPITATION OR FOG.

+ - STATION NOT QUALITY CONTROLLED BY THE NATIONAL WEATHER SERVICE.
    USE DATA WITH CAUTION...ESPECIALLY DEWPOINT AND RELATIVE
    HUMIDITY OBSERVATIONS.

INZ001>003-010>013-019-020-100300-
NORTHWEST INDIANA

CITY           SKY/WX    TMP DP  RH WIND       PRES   REMARKS
GARY /AIRPORT/ PTCLDY    68  61  77 NE7       30.02R
KNOX *+        CLEAR     63  56  78 N3        30.01R
LA PORTE +     CLEAR     63  55  74 N5        30.03R
MICHIGAN CITY+ CLEAR     63  55  77 CALM      30.03R
MONTICELLO +   PTCLDY    69  60  74 CALM      29.99R
RENSSELAER +   CLOUDY    70  63  78 CALM      30.01R
VALPARAISO     CLEAR     65  55  70 CALM      30.02R

$$

LMZ046-743>745-100300-
SOUTHERN LAKE MICHIGAN

STATION/POSITION TIME  TEMP WIND        PRES
                       AIR  DIR/SP/G
                 (UTC) (F)  (DEG/KT/KT) (MB)
MICHIGAN CITY    0200   67   10/  8/  9   N/A

$$

INZ004-005-014>016-021>024-100300-
NORTH CENTRAL INDIANA

CITY           SKY/WX    TMP DP  RH WIND       PRES   REMARKS
GOSHEN         CLEAR     66  55  67 N5        30.01R
LOGANSPORT +   MOCLDY    68  55  64 N3        30.01R
PERU/GRISSOM   CLOUDY    72  59  64 NE5       30.01R
ROCHESTER +    MOCLDY    70  57  64 N3        30.02R
SOUTH BEND     CLEAR     66  55  67 N5        30.03R
WARSAW +       CLOUDY    66  55  68 N3        30.01R

$$

INZ006>009-017-018-025>027-100300-
NORTHEAST INDIANA

CITY           SKY/WX    TMP DP  RH WIND       PRES   REMARKS
ANGOLA *+      CLEAR     64  57  77 CALM      30.02R
AUBURN +       CLEAR     68  54  60 N3        30.02R
FORT WAYNE     MOCLDY    69  57  65 N3        30.01R
HUNTINGTON +   MOCLDY    67  57  69 N3        30.00R

$$

INZ028-029-035-036-043>045-051>053-100300-
WEST CENTRAL INDIANA

CITY           SKY/WX    TMP DP  RH WIND       PRES   REMARKS
GREENCASTLE +  CLEAR     64  59  82 CALM      30.02R
LAFAYETTE      CLEAR     67  59  75 W3        30.00R
TERRE HAUTE    CLEAR     71  58  63 CALM      30.01R

$$

INZ030>032-037>040-046>048-054>057-064-065-100300-
CENTRAL INDIANA

CITY           SKY/WX    TMP DP  RH WIND       PRES   REMARKS
CP ATTERBURY + CLEAR     70  59  68 NW5       30.01R
COLUMBUS       CLEAR     68  63  83 CALM      30.00R
INDIANAPOLIS   PTCLDY    69  56  62 NW6       30.00R
-EAGLE CREEK   CLEAR     70  57  63 W5        30.00R
KOKOMO *+      CLOUDY    68  61  77 CALM      30.00R
MARION +       CLOUDY    67  59  75 CALM      30.01R
MT COMFORT *+  CLEAR     66  59  77 CALM      30.01R
SHELBYVILLE    CLEAR     69  59  70 NW3       30.00R
ZIONSVILLE +   CLEAR     67  58  73 NW3       30.02R

$$

INZ033-034-041-042-049-050-058-059-100300-
EAST CENTRAL INDIANA

CITY           SKY/WX    TMP DP  RH WIND       PRES   REMARKS
MUNCIE         PTCLDY    70  58  65 N3        30.01R

$$

INZ060-061-067>069-081>083-085>088-100300-
SOUTHWEST INDIANA

CITY           SKY/WX    TMP DP  RH WIND       PRES   REMARKS
EVANSVILLE     CLEAR     79  62  56 NW3       30.00R
HUNTINGBURG *+ CLEAR     73  63  68 N3        30.00R
WASHINGTON +   PTCLDY    70  66  86 CALM      29.99R

$$

INZ062-063-066-070>080-084-089>092-100300-
SOUTH CENTRAL AND SOUTHEAST INDIANA

CITY           SKY/WX    TMP DP  RH WIND       PRES   REMARKS
BEDFORD +      CLEAR     70  61  73 CALM      30.01
BLOOMINGTON    CLEAR     71  60  68 CALM      30.01R

$$



USA.gov is the U.S. government's official web portal to all federal, state and local government web resources and services.